Weather Roundup
Issued by NWS Chicago, IL

Home | Current Version | Previous Version | Graphics & Text | Print | Product List | Glossary On
Versions: 1 2 3 4 5 6 7 8 9 10 11 12 13 14 15 16 17 18 19 20 21 22 23 24 25 26 27 28 29 30 31 32 33 34 35 36 37 38 39 40 41 42 43 44 45 46 47 48 49 50
000
NZUS59 KLOT 300108
HRRLOT

CHICAGO AREA WEATHER ROUNDUP
NATIONAL WEATHER SERVICE CHICAGO/ROMEOVILLE IL
800 PM CDT SUN MAY 29 2016

NOTE: "FAIR" INDICATES FEW OR NO CLOUDS BELOW 12,000 FEET WITH NO
SIGNIFICANT WEATHER AND/OR OBSTRUCTIONS TO VISIBILITY.

* THESE STATIONS ARE NOT UNDER NWS QUALITY CONTROL. THEY ALSO MAY NOT
  REPORT WEATHER SUCH AS PRECIPITATION OR FOG.

ILZ005-006-012>014-019>023-300200-
NORTHEAST ILLINOIS

CITY           SKY/WX    TMP DP  RH WIND       PRES   REMARKS
OHARE          PTCLDY    76  57  51 W7        29.98R
MIDWAY         PTCLDY    78  55  44 W13       29.98S
AURORA         CLEAR     73  62  68 W6        30.00S
LANSING*       CLEAR     76  54  46 W7        29.99S
JOLIET*        CLEAR     79  57  46 CALM      29.99S HX  80
WAUKEGAN       CLEAR     75  56  51 VRB3      29.96S
DUPAGE AIRPORT CLEAR     74  56  53 W7        29.98S
WHEELING       CLEAR     77  55  46 W7        29.98S
KANKAKEE*      CLEAR     78  56  46 NW7       30.00S
MORRIS*        CLEAR     77  55  46 NW12      29.98S
LEWIS AIRPORT* CLEAR     77  53  42 W7        30.00S
$$

WIZ051-052-058>065-066-070>072-300200-
SOUTHEAST WISCONSIN

CITY           SKY/WX    TMP DP  RH WIND       PRES   REMARKS
MILWAUKEE      PTCLDY    76  56  49 W8        29.94S
KENOSHA*       MOCLDY    73  58  59 W8        29.97R
RACINE*        CLEAR     75  56  51 W6        29.97R
BURLINGTON     MOCLDY    73  56  55 W3        29.97R
WAUKESHA       PTCLDY    72  55  56 W7        29.97R
WEST BEND      CLEAR     72  55  56 W7        29.94S
$$

INZ001>003-010>013-019-020-300200-
NORTHWEST INDIANA

CITY           SKY/WX    TMP DP  RH WIND       PRES   REMARKS
GARY*          PTCLDY    79  63  57 W14       29.99S HX  80
MICHIGAN CITY* NOT AVBL
RENSSELAER*    NOT AVBL
VALPARAISO     CLEAR     75  56  51 W6        30.00S
$$

LMZ740>746-300200-
SOUTHERN LAKE MICHIGAN

STATION/POSITION TIME  SKY/WX   TEMP WIND        PRES    VSBY
                                AIR  DIR/SP/G
                 (UTC)          (F)  (DEG/KT/KT) (MB)    (MI)
HARRISON CRIB    0000            79  260/ 17/ 19   N/A
BURNHAM HARBOR   0100            78  250/  9/ 14   N/A
CALUMET HARBOR   0000            79              1014.8R
BURNS HARBOR     0000            69  270/  6/  8 1015.9S
MICHIGAN CITY    0000            70  220/  7/  7   N/A
$$

ABBREVIATIONS USED IN REMARKS
   TC - TEMPERATURE IN CELSIUS
  WCI - WIND CHILL INDEX
   HX - HEAT INDEX
  VSB - VISIBILITY
$$




USA.gov is the U.S. government's official web portal to all federal, state and local government web resources and services.